Date,TemperatureHighF,TemperatureAvgF,TemperatureLowF,DewpointHighF,DewpointAvgF,DewpointLowF,HumidityHigh,HumidityAvg,HumidityLow,PressureMaxIn,PressureMinIn,WindSpeedMaxMPH,WindSpeedAvgMPH,GustSpeedMaxMPH,PrecipitationSumIn
2013-1-1,42.5,38.9,34.8,42.0,36.3,27.1,99,91,67,30.31,30.12,2,0,0,0.69
2013-1-2,45.8,41.2,36.7,42.8,39.6,35.4,99,94,82,30.25,30.07,1,0,0,0.02
2013-1-3,45.4,35.9,25.5,37.6,33.3,24.3,98,91,71,30.47,30.22,3,0,0,0.00
2013-1-4,42.6,29.5,20.2,29.8,22.1,16.2,98,77,42,30.56,30.44,3,0,0,0.01
2013-1-5,49.5,34.5,20.2,36.2,24.4,18.7,95,71,33,30.61,30.41,3,0,0,0.01
2013-1-6,48.7,39.8,35.6,41.0,33.7,25.6,98,81,49,30.41,30.19,4,0,0,0.02
2013-1-7,53.7,37.4,24.7,31.9,26.4,21.2,96,69,28,30.56,30.35,7,0,0,0.00
2013-1-8,54.5,37.3,24.0,41.3,31.5,22.2,96,81,57,30.62,30.48,3,0,0,0.00
2013-1-9,53.4,47.2,40.7,48.4,43.7,37.4,96,88,82,30.61,30.54,2,0,0,0.00
2013-1-10,65.7,52.5,41.5,53.6,47.8,41.0,99,85,60,30.62,30.40,10,1,13,0.00
2013-1-11,62.0,56.8,53.0,59.5,55.6,51.4,98,96,88,30.40,30.20,6,0,0,0.26
2013-1-12,68.6,59.6,55.1,63.9,57.4,53.1,99,93,73,30.28,30.15,5,0,0,0.07
2013-1-13,68.3,61.8,53.2,58.0,55.2,51.6,97,79,65,30.20,30.10,5,0,0,0.27
2013-1-14,59.6,57.5,49.5,58.8,56.9,49.0,99,98,95,30.24,30.08,3,0,0,1.88
2013-1-15,57.9,54.5,49.3,57.6,54.1,49.0,99,99,97,30.21,30.04,4,0,0,3.21
2013-1-16,62.4,55.8,51.5,57.5,54.5,51.1,99,96,78,30.10,29.98,5,0,0,0.84
2013-1-17,51.6,44.8,33.8,51.3,41.8,25.8,99,90,68,30.33,30.02,5,0,17,2.05
2013-1-18,47.4,35.6,26.0,31.4,25.9,18.0,94,71,31,30.64,30.33,2,0,0,0.00
2013-1-19,51.4,35.2,23.0,34.7,26.2,15.8,98,76,25,30.63,30.38,2,0,0,0.00
2013-1-20,53.9,37.0,24.2,36.8,28.2,23.2,98,74,37,30.39,30.23,8,0,0,0.01
2013-1-21,49.7,34.1,24.0,33.8,24.2,16.2,98,70,39,30.30,30.18,6,0,0,0.00
2013-1-22,34.8,28.1,21.2,17.3,9.6,0.4,63,47,25,30.43,30.24,8,1,13,0.00
2013-1-23,44.4,32.8,24.6,26.8,19.2,7.8,81,57,45,30.50,30.27,6,0,0,0.00
2013-1-24,44.3,37.5,25.7,34.0,18.0,2.8,87,49,20,30.52,30.22,7,0,0,0.00
2013-1-25,33.4,28.3,24.5,32.8,22.6,8.9,98,81,48,30.55,30.29,6,0,0,0.17
2013-1-26,46.3,35.8,29.4,37.6,32.2,28.1,99,88,54,30.50,30.31,2,0,0,0.08
2013-1-27,53.6,37.5,23.8,37.6,30.3,22.8,98,78,45,30.64,30.50,4,0,0,0.00
2013-1-28,64.3,49.5,40.5,48.4,40.9,33.0,95,73,55,30.57,30.37,4,0,0,0.00
2013-1-29,45.4,41.5,37.8,44.1,40.5,36.9,98,97,93,30.40,30.38,2,0,0,0.00
2013-1-30,62.9,51.0,39.3,60.2,49.7,37.4,98,95,87,29.70,29.57,7,0,12,3.08
2013-1-31,38.9,33.2,28.1,37.5,25.5,20.6,96,74,53,30.23,29.69,8,1,0,0.05
2013-2-1,38.7,29.1,19.0,31.6,13.9,3.6,87,54,31,30.53,30.14,6,0,0,0.00
2013-2-2,33.7,24.8,16.1,28.1,20.4,9.8,97,84,44,30.53,30.27,2,0,0,0.00
2013-2-3,41.4,33.3,28.7,33.5,28.0,22.9,97,81,61,30.27,30.13,5,0,0,0.23
2013-2-4,47.5,33.9,22.7,31.2,25.2,20.0,93,72,46,30.33,30.15,4,0,0,0.12
2013-2-5,51.9,38.6,29.8,39.8,32.6,27.9,94,81,50,30.20,30.09,5,0,0,0.01
2013-2-6,57.0,40.1,26.4,37.5,27.8,20.0,98,68,27,30.37,30.20,6,0,0,0.00
2013-2-7,43.7,38.5,31.7,42.4,35.6,27.5,98,90,74,30.38,30.12,1,0,0,0.25
2013-2-8,51.4,41.5,32.1,47.5,37.1,26.5,99,86,52,30.30,30.06,8,0,13,0.02
2013-2-9,57.6,39.8,23.9,31.4,23.7,11.0,97,61,18,30.47,30.26,4,0,0,0.00
2013-2-10,52.4,42.5,33.5,46.8,30.9,19.1,98,67,28,30.49,30.27,12,1,14,1.04
2013-2-11,55.4,48.5,38.2,53.7,46.6,37.1,99,93,73,30.27,30.14,5,0,0,0.22
2013-2-12,53.4,41.2,31.0,40.9,35.5,30.0,99,83,42,30.27,30.03,2,0,0,0.27
2013-2-13,52.6,41.7,32.3,46.4,38.4,30.1,98,88,68,30.05,29.78,5,0,0,0.25
2013-2-14,49.3,36.4,27.4,33.4,29.0,26.3,98,77,42,30.23,30.05,5,0,0,0.00
2013-2-15,57.0,38.2,24.2,37.6,30.8,23.2,98,78,37,30.30,30.11,5,0,0,0.00
2013-2-16,36.9,29.8,20.9,31.3,22.6,11.5,91,75,47,30.20,30.02,9,0,13,0.00
2013-2-17,35.5,26.1,18.3,15.9,10.9,6.8,74,54,30,30.46,30.20,7,0,0,0.00
2013-2-18,54.6,34.5,17.1,27.4,20.8,14.4,92,61,30,30.57,30.32,7,0,0,0.00
2013-2-19,48.0,38.7,32.2,42.9,27.9,14.7,97,68,41,30.33,30.06,11,1,13,0.32
2013-2-20,47.7,35.2,24.4,17.7,12.5,3.7,67,42,17,30.32,30.23,6,0,0,0.00
2013-2-21,62.2,40.3,21.9,37.8,22.9,10.4,96,58,16,30.38,30.18,6,0,0,0.51
2013-2-22,47.9,41.5,35.9,43.9,38.9,32.1,97,91,82,30.37,30.19,10,1,0,0.53
2013-2-23,56.5,47.8,42.7,52.2,46.4,40.4,99,95,82,30.20,29.93,4,0,0,0.32
2013-2-24,57.9,43.0,32.6,40.6,31.6,22.4,99,70,29,30.18,29.99,6,0,0,0.01
2013-2-25,47.6,33.7,28.6,33.6,28.1,25.4,96,82,44,30.24,30.15,6,0,0,0.00
2013-3-2,40.3,32.8,25.3,30.7,24.7,19.4,80,72,61,30.12,30.02,6,0,0,0.03
2013-3-3,37.7,27.9,20.4,20.3,17.1,14.5,82,65,43,30.22,30.10,6,0,0,0.00
2013-3-4,54.4,35.4,16.8,31.6,20.5,12.3,90,60,21,30.35,30.21,4,0,0,0.00
2013-3-5,47.3,37.5,31.7,46.8,34.8,26.5,99,90,69,30.25,29.81,6,0,13,0.82
2013-3-6,33.4,29.3,24.2,29.0,25.8,22.4,95,87,76,30.34,29.89,10,0,17,0.00
2013-3-7,52.3,34.9,21.9,34.0,26.9,20.9,97,75,43,30.46,30.32,4,0,0,0.01
2013-3-8,59.6,38.9,22.4,32.2,22.9,13.9,97,62,19,30.49,30.36,3,0,0,0.00
2013-3-9,68.3,44.8,24.0,31.3,26.4,21.3,90,55,19,30.49,30.30,6,0,0,0.00
2013-3-10,65.8,48.9,34.3,37.7,31.0,28.7,85,55,25,30.39,30.23,9,1,16,0.00
2013-3-12,57.1,46.0,35.2,35.2,29.7,27.4,78,54,37,30.18,30.02,5,0,0,0.19
2013-3-13,46.9,36.1,28.1,31.5,24.6,17.9,90,65,38,30.36,30.17,9,1,13,0.00
2013-3-14,51.0,35.2,20.6,20.5,15.2,10.1,80,48,20,30.46,30.34,5,0,0,0.00
2013-3-15,68.5,47.8,26.2,41.4,29.7,13.5,83,52,29,30.39,30.08,6,0,0,0.00
2013-3-16,75.2,64.4,51.7,47.0,43.5,40.3,67,48,32,30.08,29.86,9,0,14,0.00
2013-3-17,73.7,60.1,48.8,48.7,44.2,39.6,83,58,30,30.04,29.93,3,0,0,0.00
2013-3-18,56.2,50.2,44.2,49.3,46.5,43.4,98,87,69,30.05,29.92,7,0,0,0.69
2013-3-19,57.2,47.0,35.8,44.4,30.2,13.1,99,59,25,30.21,29.97,10,1,0,0.00
2013-3-20,53.4,39.7,27.7,30.8,17.9,8.4,85,45,18,30.23,29.99,8,1,0,0.00
2013-3-21,40.1,31.4,22.1,26.9,12.8,7.6,81,47,29,30.12,29.97,9,1,13,0.00
2013-3-22,47.2,33.9,20.4,29.8,19.7,12.0,85,58,33,30.24,30.12,3,0,0,0.00
2013-3-23,58.7,45.1,36.6,47.6,38.9,28.9,96,80,64,30.20,29.93,8,0,13,0.06
2013-3-24,54.9,46.2,39.9,49.9,43.3,37.8,98,90,74,30.02,29.57,9,1,13,1.17
2013-3-25,39.5,33.3,27.8,37.6,26.4,22.3,94,76,57,30.10,29.65,10,1,0,0.00
2013-3-26,41.7,31.7,25.6,31.5,26.0,22.8,95,80,56,30.39,30.10,7,0,13,0.01
2013-3-27,48.4,36.6,26.1,24.8,21.8,18.5,80,57,33,30.44,30.35,7,0,0,0.00
2013-3-28,55.6,38.3,21.6,28.3,19.7,10.8,95,55,17,30.48,30.36,10,0,12,0.00
2013-3-29,53.3,36.9,23.7,39.0,28.3,20.6,97,75,31,30.52,30.42,4,0,0,0.13
2013-3-30,63.7,48.8,37.7,47.1,39.6,36.3,98,75,37,30.42,30.16,6,0,0,0.13
2013-3-31,62.7,51.7,46.2,54.2,49.5,43.3,98,92,68,30.18,29.96,2,0,0,0.62
2013-4-1,63.4,52.7,44.1,51.1,43.7,34.3,98,74,43,30.11,29.97,6,0,0,0.03
2013-4-2,61.6,48.5,34.5,35.0,25.3,11.9,83,46,16,30.26,30.11,5,0,0,0.00
2013-4-3,66.3,50.9,38.5,30.1,25.1,17.1,64,39,17,30.33,30.22,8,0,12,0.00
2013-4-4,49.3,39.4,35.2,37.5,33.9,25.1,98,84,39,30.31,30.09,6,0,0,0.82
2013-4-5,62.7,47.6,37.7,46.6,37.5,27.6,99,73,27,30.23,30.09,8,0,15,0.00
2013-4-6,69.8,50.2,30.9,39.4,33.1,29.2,97,59,23,30.36,30.22,13,1,13,0.00
2013-4-7,72.5,56.1,38.0,44.0,39.1,33.6,84,56,30,30.32,30.18,5,0,0,0.00
2013-4-8,77.5,60.6,44.7,50.6,45.9,41.3,89,62,34,30.25,30.15,5,0,0,0.00
2013-4-9,84.1,64.9,46.0,55.1,50.4,44.0,96,64,31,30.30,30.16,6,0,0,0.00
2013-4-10,87.3,67.5,49.0,56.5,51.5,41.2,95,62,21,30.22,30.02,5,1,0,0.00
2013-4-11,80.8,65.9,56.3,61.3,54.7,49.1,97,70,35,30.03,29.74,9,1,0,1.98
2013-4-12,71.2,60.3,45.5,60.2,49.2,33.4,98,71,37,30.00,29.69,9,0,13,1.15
2013-4-13,72.0,55.4,37.3,42.5,34.4,24.8,94,52,18,30.17,29.99,10,0,0,0.00
2013-4-14,70.2,52.8,36.7,49.2,39.9,34.0,93,65,29,30.22,30.08,12,1,14,0.00
2013-4-15,77.1,60.9,50.5,57.6,52.9,49.1,98,78,44,30.27,30.06,9,1,13,0.03
2013-4-16,81.8,66.7,56.3,59.7,55.6,51.8,90,70,36,30.34,30.21,6,0,0,0.00
2013-4-17,84.8,66.2,58.6,62.1,57.6,55.1,90,75,41,30.31,30.18,8,0,15,0.03
2013-4-18,74.9,66.5,59.0,60.7,56.7,52.4,90,72,48,30.18,29.98,10,1,13,0.00
2013-4-19,66.7,58.9,41.9,62.2,54.9,35.7,97,87,74,30.06,29.77,9,1,0,1.31
2013-4-20,61.6,47.5,32.5,37.3,29.9,22.6,87,55,25,30.41,30.06,6,0,0,0.00
2013-4-21,63.6,48.2,31.2,38.0,32.6,28.4,96,60,28,30.52,30.40,11,1,0,0.00
2013-4-22,67.8,52.4,35.9,41.2,37.0,33.5,93,60,31,30.50,30.26,6,0,0,0.00
2013-4-23,73.8,56.0,36.1,44.7,38.5,32.0,87,56,31,30.36,30.16,7,0,0,0.00
2013-4-24,74.8,58.0,46.2,59.3,50.0,42.6,94,77,45,30.24,30.10,6,0,0,0.06
2013-4-25,69.5,54.6,40.5,50.4,33.6,11.2,96,55,12,30.44,30.19,5,0,0,0.00
2013-4-26,72.4,53.5,31.4,39.9,33.3,29.4,93,52,22,30.54,30.38,6,0,0,0.00
2013-4-27,57.9,51.1,47.6,51.9,47.6,37.7,98,89,47,30.48,30.33,3,0,0,1.34
2013-4-28,53.3,51.0,49.0,52.7,50.2,47.6,99,97,91,30.35,30.10,6,0,0,2.54
2013-4-29,72.4,60.1,50.0,58.1,52.0,46.1,99,78,41,30.17,30.00,4,0,0,0.03
2013-4-30,77.7,62.8,47.6,55.9,52.4,46.5,98,72,36,30.22,30.06,8,0,0,0.00
2013-5-1,71.1,61.3,52.8,55.3,51.5,48.6,94,72,48,30.31,30.22,8,1,0,0.00
2013-5-2,67.5,59.0,54.8,55.7,52.5,49.6,90,79,62,30.33,30.26,10,1,0,0.00
2013-5-3,65.1,57.1,51.6,54.1,50.8,47.6,95,80,55,30.28,30.13,12,1,15,0.01
2013-5-4,54.4,50.3,46.5,50.3,47.2,41.6,97,89,78,30.14,30.00,7,1,13,0.50
2013-5-5,53.1,49.7,47.3,51.9,48.8,46.8,98,97,92,30.05,29.89,7,1,0,1.04
2013-5-6,63.8,53.2,44.4,51.3,46.0,40.9,99,79,48,30.02,29.86,9,0,0,0.22
2013-5-7,69.1,51.9,38.6,52.3,44.4,37.8,98,79,41,30.08,29.98,5,0,0,0.00
2013-5-8,67.2,56.3,48.0,58.2,51.9,47.3,98,86,65,30.18,30.05,4,0,0,0.00
2013-5-9,76.6,62.8,51.0,60.7,51.8,43.3,97,72,33,30.24,30.13,4,0,0,0.00
2013-5-10,76.3,60.2,48.2,60.9,53.1,47.1,97,80,49,30.22,30.08,4,0,0,0.00
2013-5-18,68.6,65.1,62.1,64.5,62.0,60.6,97,90,82,30.17,30.12,3,0,0,0.39
2013-5-19,75.7,66.2,60.3,68.6,63.1,59.3,98,90,73,30.19,30.07,1,0,0,0.11
2013-5-20,82.3,67.2,56.2,67.4,60.7,55.6,98,82,48,30.22,30.09,6,0,0,0.00
2013-5-21,85.0,67.6,57.8,69.0,61.4,53.3,98,83,41,30.15,30.02,8,0,0,0.01
2013-5-22,81.2,66.6,57.3,69.4,61.6,56.4,98,86,52,30.11,29.94,3,0,0,0.23
2013-5-23,75.5,66.1,59.1,66.4,58.8,52.6,99,80,46,30.04,29.96,7,0,0,0.27
2013-5-24,67.3,61.0,47.2,54.4,45.0,33.5,89,58,32,30.33,30.02,7,0,0,0.00
2013-5-25,74.5,56.4,36.8,47.8,38.9,27.2,97,59,25,30.45,30.30,3,0,0,0.00
2013-5-26,71.3,57.3,44.9,52.9,45.5,38.7,91,67,39,30.42,30.29,5,0,0,0.00
2013-5-27,79.5,63.7,46.3,59.9,53.1,44.9,96,71,45,30.39,30.22,3,0,0,0.00
2013-5-28,80.8,67.6,55.4,65.5,57.6,53.6,95,73,42,30.31,30.21,6,0,0,0.00
2013-5-29,82.8,69.4,57.3,65.9,58.3,52.3,96,71,40,30.31,30.20,3,0,0,0.00
2013-5-30,81.4,67.3,53.8,67.5,57.8,52.7,97,74,47,30.36,30.22,4,0,0,0.00
2013-5-31,78.7,64.0,58.1,63.9,58.6,56.3,95,84,50,30.30,30.25,3,0,0,0.00
2013-6-6,76.9,70.2,60.5,69.9,66.5,59.8,98,88,70,29.97,29.84,2,0,0,0.07
2013-6-7,79.3,68.6,62.2,70.2,64.5,61.1,98,88,59,29.93,29.76,6,0,0,0.09
2013-6-8,78.1,68.5,60.6,67.2,62.4,59.4,98,83,54,30.18,29.92,2,0,0,0.02
2013-6-9,80.4,67.5,59.6,70.1,63.8,58.7,98,89,62,30.23,30.09,3,0,0,0.81
2013-6-10,73.6,67.3,63.3,70.0,63.8,60.1,98,89,65,30.11,30.00,3,0,0,1.01
2013-6-11,80.2,70.5,60.8,70.9,63.0,58.9,99,80,50,30.12,30.04,6,0,0,0.15
2013-6-12,86.4,71.7,58.9,74.5,65.6,58.0,98,83,55,30.16,30.04,3,0,0,0.00
2013-6-13,85.7,69.9,61.6,72.6,65.5,60.7,98,88,54,30.06,29.82,4,0,0,1.17
2013-6-14,77.5,66.8,55.4,64.4,57.2,51.0,99,75,43,30.16,29.91,4,0,0,0.00
2013-6-15,80.1,66.5,50.5,63.3,57.1,49.4,97,75,49,30.27,30.14,3,0,0,0.00
2013-6-16,82.6,69.9,56.7,67.5,61.6,55.6,97,77,48,30.25,30.09,3,0,0,0.00
2013-6-17,80.3,69.2,65.8,69.9,65.5,64.1,95,88,68,30.13,30.08,2,0,0,0.00
2013-6-18,68.4,65.8,63.7,66.9,64.9,63.1,98,97,94,30.02,29.93,0,0,0,0.44
2013-6-19,78.1,68.1,58.4,69.1,62.6,57.8,99,84,55,30.20,30.02,2,0,0,0.00
2013-6-20,81.8,67.6,56.0,68.8,62.0,54.9,98,84,57,30.32,30.19,8,0,0,0.00
2013-6-21,78.8,68.7,61.1,68.3,63.0,59.6,98,84,57,30.35,30.25,3,0,0,0.00
2013-6-22,81.4,68.3,56.5,66.2,60.5,55.7,98,79,47,30.35,30.19,3,0,0,0.00
2013-6-23,82.7,68.4,56.3,69.5,63.1,55.5,97,85,53,30.32,30.19,3,0,0,0.00
2013-6-24,82.2,72.4,63.1,70.9,66.1,62.2,98,82,59,30.31,30.16,4,0,0,0.00
2013-6-25,83.2,71.3,62.9,71.0,66.1,61.9,98,85,58,30.25,30.10,4,0,0,0.00
2013-6-26,82.7,71.0,63.4,72.6,67.4,62.5,98,89,65,30.15,30.00,3,0,0,0.40
2013-6-27,75.6,68.2,64.1,69.6,66.6,63.5,98,95,80,30.06,29.86,5,0,0,0.68
2013-6-28,83.9,72.4,65.8,74.5,68.1,65.2,98,88,58,29.92,29.72,5,0,0,0.08
2013-6-29,81.5,70.3,61.3,69.9,62.4,54.9,98,79,48,29.81,29.73,3,0,0,0.00
2013-6-30,83.6,67.9,55.0,69.0,61.8,54.2,98,83,48,29.90,29.80,2,0,0,0.00
2013-7-1,81.0,69.2,62.3,70.5,64.6,61.7,98,87,58,30.03,29.87,6,0,0,0.32
2013-7-2,79.0,69.9,62.8,70.1,64.9,61.9,99,85,60,30.19,30.02,4,0,0,0.56
2013-7-3,71.0,65.6,61.7,70.0,64.7,61.4,99,97,92,30.30,30.17,1,0,0,4.75
2013-7-4,72.9,65.4,61.3,71.1,64.7,61.0,99,98,88,30.31,30.23,4,0,0,1.73
2013-7-5,76.5,69.0,64.5,69.4,66.1,63.9,99,91,73,30.32,30.23,4,0,0,0.46
2013-7-6,77.3,69.7,64.3,70.7,67.0,63.7,99,92,73,30.28,30.17,6,0,0,0.13
2013-7-7,77.3,70.4,66.4,73.1,68.3,66.0,99,93,77,30.25,30.16,2,0,0,0.04
2013-7-8,83.7,72.8,65.7,73.2,68.1,65.1,99,87,59,30.27,30.16,0,0,0,0.01
2013-7-9,85.7,73.4,67.6,74.8,69.8,66.9,98,89,63,30.25,30.14,3,0,0,0.01
2013-7-10,84.9,73.8,68.1,76.0,69.9,67.5,99,89,63,30.20,30.00,5,0,0,0.29
2013-7-11,79.0,71.4,66.5,72.8,68.8,65.9,99,92,76,30.05,29.94,2,0,0,0.00
2013-7-12,84.8,70.0,62.5,72.6,66.0,61.6,98,89,56,30.07,29.95,6,0,0,0.07
2013-7-13,75.3,67.9,61.7,68.7,64.6,61.1,98,90,75,30.18,30.06,5,0,0,0.00
2013-7-14,73.3,68.4,64.9,71.0,66.8,64.0,99,95,88,30.35,30.17,4,0,0,0.26
2013-7-15,79.2,71.5,64.5,71.6,67.1,63.8,98,87,68,30.40,30.32,4,0,0,0.00
2013-7-16,86.0,73.0,63.9,74.3,67.7,63.3,99,85,57,30.43,30.30,2,0,0,0.03
2013-7-17,84.7,70.6,64.8,75.5,68.2,64.2,99,93,67,30.39,30.24,3,0,0,0.35
2013-7-18,83.4,71.7,64.4,75.9,68.6,64.1,99,91,70,30.33,30.16,1,0,0,0.01
2013-7-19,83.3,73.4,65.7,73.7,68.7,64.8,98,87,61,30.23,30.06,5,0,0,0.00
2013-7-20,83.5,72.2,67.0,74.2,69.3,66.4,99,91,64,30.13,30.01,3,0,0,1.26
2013-7-21,82.7,71.7,66.8,73.9,68.8,66.0,98,92,67,30.11,30.00,3,0,0,0.25
2013-7-22,80.3,71.3,65.8,72.3,68.0,65.2,99,90,69,30.09,29.91,2,0,0,0.83
2013-7-23,81.2,71.4,63.5,73.1,67.7,63.1,99,89,65,30.00,29.88,3,0,0,0.02
2013-7-24,84.9,72.2,64.4,73.8,67.6,63.8,99,87,62,29.96,29.86,3,0,0,0.32
2013-7-25,80.3,69.8,62.2,71.6,64.6,61.6,98,85,55,30.12,29.95,3,0,0,0.00
2013-7-26,81.3,68.5,59.3,70.3,63.9,58.4,98,87,59,30.19,30.09,2,0,0,0.00
2013-7-27,77.0,69.8,64.9,71.1,66.8,64.3,99,91,72,30.11,29.97,1,0,0,0.50
2013-7-28,79.6,70.1,62.4,69.2,65.3,61.0,98,86,63,30.14,30.00,3,0,0,0.00
2013-7-29,79.8,66.6,58.3,67.9,59.9,52.1,99,82,44,30.30,30.13,2,0,0,0.00
2013-7-30,80.7,67.8,54.1,69.1,61.4,53.3,98,82,52,30.35,30.22,3,0,0,0.00
2013-7-31,74.0,68.9,65.7,70.8,67.1,65.0,98,94,81,30.26,30.05,1,0,0,0.01
2013-8-1,79.1,71.1,64.4,72.8,67.5,63.2,99,89,68,30.08,29.98,2,0,0,0.06
2013-8-2,80.9,70.1,60.5,71.2,65.4,59.8,99,86,62,30.13,30.05,2,0,0,0.00
2013-8-3,80.8,71.3,64.9,70.9,66.8,64.3,98,87,61,30.13,30.06,2,0,0,0.00
2013-8-4,82.4,70.4,62.7,72.5,64.9,59.9,99,84,61,30.14,30.05,5,0,0,0.00
2013-8-5,82.0,69.0,58.4,69.6,63.0,57.6,97,83,57,30.17,30.06,1,0,0,0.00
2013-8-6,82.5,70.8,63.4,71.6,66.0,61.0,98,86,61,30.12,30.02,4,0,0,1.45
2013-8-7,76.6,69.4,65.8,73.6,68.3,65.2,99,96,86,30.14,30.08,2,0,0,1.33
2013-8-8,79.8,71.6,66.9,74.1,69.4,66.3,99,93,78,30.14,30.08,3,0,0,0.01
2013-8-9,82.3,73.2,66.5,74.8,70.3,66.2,99,91,70,30.18,30.09,3,0,0,0.00
2013-8-10,81.6,72.4,67.9,75.2,70.6,67.6,99,94,78,30.21,30.14,4,0,0,0.11
2013-8-11,82.0,72.2,66.6,74.2,69.4,65.7,98,91,72,30.25,30.14,2,0,0,0.31
2013-8-12,83.2,72.4,66.3,76.6,69.9,66.0,99,92,70,30.21,30.06,2,0,0,0.01
2013-8-13,77.8,70.3,66.1,73.3,68.3,65.5,99,94,75,30.09,29.93,3,0,0,0.41
2013-8-14,75.2,68.1,63.5,68.6,64.3,59.7,99,88,61,30.14,30.00,2,0,0,0.00
2013-8-15,71.3,64.3,56.8,62.6,59.5,56.0,98,85,68,30.21,30.12,5,0,0,0.00
2013-8-16,69.4,62.4,55.9,62.0,58.4,55.0,98,87,72,30.24,30.15,4,0,0,0.00
2013-8-17,70.3,62.9,57.2,63.6,60.2,55.8,98,91,65,30.26,30.19,5,0,0,0.03
2013-8-18,75.5,66.3,61.5,69.6,64.8,61.0,99,95,78,30.31,30.21,3,0,0,0.20
2013-8-19,72.8,66.7,62.7,70.4,65.8,62.3,99,97,89,30.29,30.16,1,0,0,1.30
2013-8-20,76.2,68.6,64.3,71.2,67.0,63.7,99,95,77,30.29,30.20,3,0,0,0.52
2013-8-21,72.9,67.7,64.6,70.6,66.7,64.3,99,97,87,30.33,30.23,3,0,0,0.05
2013-8-22,80.1,70.3,63.5,72.6,67.0,63.2,99,90,69,30.29,30.12,3,0,0,0.00
2013-8-23,80.5,69.7,63.5,72.2,66.2,62.9,99,90,64,30.19,30.06,4,0,0,0.00
2013-8-24,79.7,68.7,60.8,70.7,63.8,59.1,98,85,65,30.38,30.17,5,0,0,0.00
2013-8-25,76.5,64.9,53.6,64.8,59.3,53.0,98,83,58,30.49,30.35,3,0,0,0.00
2013-8-26,76.2,65.3,54.4,67.1,60.1,53.8,99,85,56,30.44,30.24,4,0,0,0.00
2013-8-27,79.4,66.2,55.9,70.0,62.4,55.3,99,89,64,30.29,30.14,2,0,0,0.00
2013-8-28,81.5,70.2,61.8,74.0,66.5,61.0,98,89,69,30.19,30.05,2,0,0,0.00
2013-8-29,81.9,71.8,63.7,74.8,68.8,63.1,99,91,72,30.10,30.01,3,0,0,0.43
2013-8-30,81.8,72.5,64.7,76.0,68.8,64.4,99,89,68,30.12,29.99,3,0,0,0.00
2013-8-31,81.4,71.4,65.7,73.9,68.4,65.2,99,91,71,30.06,29.95,3,0,0,0.00
2013-9-1,81.4,70.6,65.0,74.6,68.3,64.4,99,93,75,30.02,29.91,2,0,0,0.17
2013-9-2,79.1,71.6,65.2,73.2,68.7,64.7,99,91,75,30.04,29.91,2,0,0,0.00
2013-9-3,77.3,68.9,62.7,70.5,65.8,62.3,99,91,67,30.11,29.95,6,0,0,0.77
2013-9-4,77.6,67.5,59.9,69.3,63.8,59.6,99,89,64,30.23,30.10,2,0,0,0.00
2013-9-5,78.3,67.8,60.2,70.5,64.3,59.1,99,90,58,30.25,30.17,1,0,0,0.01
2013-9-6,76.5,65.6,53.7,67.1,60.6,52.8,98,85,58,30.29,30.16,2,0,0,0.00
2013-9-7,77.6,67.6,58.6,69.0,63.5,58.0,99,88,66,30.23,30.09,2,0,0,0.00
2013-9-8,77.5,67.4,59.4,70.3,64.3,58.8,99,91,68,30.14,30.05,1,0,0,0.00
2013-9-9,79.5,68.7,59.3,71.0,64.6,59.0,99,88,63,30.25,30.13,5,0,0,0.00
2013-9-10,81.2,69.0,61.8,71.1,65.7,61.2,99,90,66,30.35,30.24,3,0,0,0.00
2013-9-11,80.3,68.6,60.5,71.8,65.6,59.9,99,91,71,30.36,30.20,2,0,0,0.01
2013-9-12,76.4,68.1,63.4,70.9,66.4,62.8,99,95,80,30.22,30.01,2,0,0,0.05
2013-9-13,72.5,64.6,53.4,67.5,60.4,52.3,99,87,62,30.03,29.92,3,0,0,0.02
2013-9-14,70.7,59.3,49.7,60.6,54.4,49.2,99,85,57,30.24,30.03,3,0,0,0.00
2013-9-15,73.4,60.8,49.4,63.1,56.5,48.9,99,87,62,30.33,30.22,4,0,0,0.00
2013-9-16,75.2,63.6,54.9,66.6,59.8,54.3,99,89,61,30.30,30.18,4,0,0,0.00
2013-9-17,69.0,63.5,60.7,61.9,59.4,55.9,98,87,69,30.35,30.25,5,0,0,0.00
2013-9-18,69.1,62.5,58.1,62.5,58.0,53.6,98,86,69,30.36,30.25,2,0,0,0.00
2013-9-19,75.1,64.7,58.2,68.3,61.7,57.5,98,90,72,30.31,30.18,3,0,0,0.00
2013-9-20,63.4,61.1,60.4,62.7,60.7,59.9,99,99,97,30.19,30.18,1,0,0,0.00
2013-9-23,72.0,65.7,59.5,63.8,60.0,56.4,95,82,65,30.15,30.07,3,0,0,0.00
2013-9-24,73.2,62.8,53.4,65.8,59.2,52.8,98,89,70,30.18,30.01,2,0,0,0.00
2013-9-25,63.2,61.2,58.8,62.8,60.5,58.1,99,98,92,30.03,29.93,2,0,0,2.57
2013-9-26,70.7,61.8,55.7,64.5,59.1,55.1,99,92,68,30.16,29.98,2,0,0,0.00
2013-9-27,71.4,59.7,51.9,61.4,55.9,51.4,99,88,57,30.28,30.16,2,0,0,0.00
2013-9-28,69.5,59.3,50.0,60.1,55.3,49.5,99,87,64,30.36,30.22,4,0,0,0.00
2013-9-29,68.6,59.9,52.2,60.1,55.3,50.5,96,85,62,30.28,30.12,4,0,0,0.00
2013-9-30,69.8,59.9,52.4,61.9,56.6,51.3,98,89,70,30.21,30.10,3,0,0,0.00
2013-10-1,70.7,60.9,52.4,61.3,57.0,51.9,99,88,60,30.30,30.16,3,0,0,0.00
2013-10-2,73.5,61.9,54.3,65.3,58.8,53.8,99,90,63,30.31,30.18,2,0,0,0.00
2013-10-3,74.3,63.7,56.7,64.8,60.2,56.1,98,89,63,30.27,30.16,2,0,0,0.00
2013-10-4,74.8,63.3,54.7,67.2,60.0,54.3,99,90,65,30.31,30.19,2,0,0,0.00
2013-10-5,76.7,64.7,55.9,67.1,60.7,55.6,99,88,63,30.28,30.13,4,0,0,0.00
2013-10-6,74.2,64.2,55.4,66.3,60.3,54.8,99,88,64,30.17,29.98,7,0,0,0.09
2013-10-7,68.5,61.0,49.4,62.9,58.5,48.6,99,92,75,30.13,29.90,3,0,0,1.73
2013-10-8,68.8,55.4,46.8,58.6,50.9,46.0,99,86,64,30.31,30.13,4,0,0,0.00
2013-10-9,71.3,56.9,45.2,60.9,52.5,44.6,98,86,64,30.33,30.20,4,0,0,0.00
2013-10-10,68.3,57.6,51.1,58.1,53.8,50.3,99,88,65,30.25,30.13,3,0,0,0.00
2013-10-11,69.5,56.1,47.9,58.3,52.3,47.6,99,89,58,30.21,30.09,2,0,0,0.00
2013-10-12,70.9,58.1,48.9,61.7,54.8,48.6,99,90,67,30.25,30.15,3,0,0,0.00
2013-10-13,69.4,60.9,55.1,63.1,58.4,54.4,98,92,76,30.31,30.24,1,0,0,0.00
2013-10-14,69.5,61.5,56.5,62.4,58.5,55.5,99,90,72,30.34,30.22,2,0,0,0.00
2013-10-15,69.8,60.4,52.4,59.8,56.1,51.9,99,87,62,30.28,30.12,6,0,0,0.00
2013-10-16,66.8,58.3,51.6,59.3,55.2,50.6,98,90,72,30.18,30.06,3,0,0,0.00
2013-10-17,64.9,59.8,54.5,64.3,59.2,53.9,99,98,95,30.10,29.96,1,0,0,0.20
2013-10-18,66.1,57.1,50.1,56.5,52.7,46.7,99,86,50,30.14,30.01,3,0,0,0.00
2013-10-19,60.6,52.9,45.9,54.8,49.8,44.5,99,90,68,30.09,29.99,3,0,0,0.00
2013-10-20,61.6,49.7,39.7,47.0,42.9,36.0,99,80,40,30.23,30.08,3,0,0,0.00
2013-10-21,64.3,49.6,36.5,51.6,44.7,35.7,99,85,53,30.30,30.14,3,0,0,0.00
2013-10-22,64.4,54.7,48.6,54.5,49.6,46.8,99,85,57,30.18,29.94,3,0,0,0.00
2013-10-23,54.9,45.2,34.1,47.1,38.2,29.6,98,78,55,30.19,29.89,7,0,12,0.00
2013-10-24,53.4,40.3,29.0,40.0,34.0,28.0,97,80,53,30.34,30.19,6,0,0,0.00
2013-10-25,47.9,38.6,28.1,34.2,27.6,21.8,91,67,38,30.52,30.34,4,0,0,0.00
2013-10-26,54.9,38.8,23.8,38.6,29.2,22.8,97,73,36,30.51,30.29,3,0,0,0.00
2013-10-27,63.5,52.9,44.0,51.8,45.7,37.1,91,77,60,30.30,30.20,5,0,0,0.00
2013-10-28,62.0,53.8,47.7,55.2,50.4,46.6,98,89,70,30.39,30.24,3,0,0,0.07
2013-10-29,66.0,56.2,50.8,53.9,50.1,46.7,98,82,52,30.47,30.35,5,0,0,0.00
2013-10-30,69.6,58.5,49.5,57.8,52.5,47.1,95,81,61,30.43,30.27,3,0,0,0.00
2013-10-31,66.3,60.8,54.6,59.5,55.3,52.1,95,83,68,30.30,29.88,8,1,0,0.00
2013-11-1,70.0,62.2,50.2,60.4,51.0,30.7,98,72,24,29.91,29.75,7,0,0,0.23
2013-11-2,59.7,47.7,37.5,47.6,40.7,36.3,99,79,48,30.18,29.87,6,0,0,0.00
2013-11-3,56.7,46.3,33.7,40.9,35.8,27.1,98,70,33,30.47,30.16,4,0,0,0.00
2013-11-4,57.3,43.6,30.3,38.2,33.6,29.3,98,71,41,30.63,30.47,6,1,0,0.00
2013-11-5,63.4,44.5,34.2,38.9,33.6,29.2,93,69,30,30.66,30.49,7,0,0,0.00
2013-11-6,63.5,54.5,45.2,54.0,48.0,37.2,96,79,67,30.54,30.24,11,0,0,0.00
2013-11-7,60.9,50.8,37.2,56.8,43.0,23.8,98,77,37,30.29,30.13,10,0,0,0.13
2013-11-8,53.6,40.3,28.5,31.8,23.0,9.7,87,56,19,30.48,30.29,3,0,0,0.00
2013-11-9,56.0,40.3,25.3,33.5,28.6,23.6,96,67,34,30.53,30.40,2,0,0,0.00
2013-11-10,64.1,46.2,30.9,38.0,32.3,27.1,96,63,27,30.46,30.33,4,0,0,0.00
2013-11-11,62.2,44.0,27.5,35.8,30.1,24.3,96,64,25,30.49,30.30,2,0,0,0.00
2013-11-12,53.4,37.5,23.8,38.5,28.4,12.5,95,70,52,30.60,30.28,8,0,12,0.00
2013-11-13,46.0,30.1,15.3,19.7,13.6,7.6,90,55,22,30.74,30.59,4,0,0,0.00
2013-11-14,55.2,35.2,17.5,24.4,18.5,12.0,94,58,18,30.69,30.48,2,0,0,0.00
2013-11-15,43.3,35.8,26.3,42.8,31.7,21.1,98,86,57,30.53,30.37,2,0,0,0.00
2013-11-16,63.9,52.0,43.2,56.2,49.3,42.7,99,91,71,30.41,30.29,3,0,0,0.00
2013-11-17,63.8,57.9,54.1,58.0,55.7,52.3,99,92,77,30.31,30.00,6,0,0,0.00
2013-11-18,62.9,54.6,42.8,57.8,44.6,29.7,99,72,39,30.15,29.95,10,0,20,0.00
2013-11-19,56.2,44.2,32.3,31.8,25.5,11.9,85,52,19,30.34,30.14,6,0,0,0.00
2013-11-20,52.0,42.9,31.3,31.0,26.9,23.8,78,54,34,30.55,30.33,11,1,0,0.00
2013-11-21,57.9,49.7,41.7,52.8,43.7,30.0,95,80,61,30.57,30.46,5,0,0,0.00
2013-11-22,65.9,57.2,52.1,58.3,54.9,51.3,98,92,75,30.48,30.24,2,0,0,0.00
2013-11-23,55.7,48.0,32.3,55.1,39.7,11.4,99,76,31,30.35,30.20,5,0,0,0.00
2013-11-24,39.9,29.8,20.2,23.2,10.8,-2.1,76,50,17,30.65,30.34,5,0,0,0.00
2013-11-25,47.3,34.0,20.7,36.7,18.7,8.9,90,58,21,30.67,30.40,4,0,0,0.00
2013-11-26,46.2,42.8,38.5,45.7,42.1,36.2,99,97,90,30.41,29.88,5,0,0,0.00
2013-12-11,46.3,37.8,29.2,29.1,19.4,7.7,89,50,24,30.63,30.51,2,0,0,0.00
2013-12-12,41.7,31.3,24.2,25.7,19.5,7.7,89,66,25,30.58,30.51,3,0,0,0.00
2013-12-21,65.4,61.3,56.7,61.7,59.0,53.5,98,92,86,30.18,30.02,7,1,0,0.00
2013-12-22,67.4,58.0,52.6,61.8,55.5,52.3,99,92,70,30.16,29.99,11,1,15,0.00
2013-12-23,52.6,47.1,33.3,52.3,45.4,32.0,99,94,81,30.34,30.11,4,0,0,0.00
2013-12-24,35.9,30.2,21.2,32.0,24.7,16.6,98,81,58,30.58,30.33,4,0,0,0.00
2013-12-25,41.9,27.3,16.4,27.0,20.2,15.2,97,77,40,30.67,30.51,5,0,0,0.00
2013-12-26,45.7,30.3,19.8,29.2,23.4,18.5,97,78,42,30.58,30.45,2,0,0,0.00
2013-12-27,49.0,32.0,20.6,31.1,24.7,19.3,97,78,37,30.67,30.55,3,0,0,0.00
2013-12-28,38.5,31.1,22.0,37.9,29.2,21.0,98,93,74,30.62,30.22,2,0,0,0.00
2013-12-29,51.9,43.9,34.1,47.8,41.9,33.3,99,93,75,30.22,29.98,6,0,0,0.00
2013-12-30,47.4,39.9,34.6,40.5,36.5,33.6,98,88,69,30.29,30.14,2,0,0,0.00
2013-12-31,42.8,33.3,26.5,33.9,26.5,20.1,97,78,48,30.55,30.27,3,0,0,0.00
2014-1-1,46.2,32.6,23.7,32.3,25.7,22.6,97,79,42,30.56,30.32,2,0,0,0.00
2014-1-2,42.9,33.3,20.0,42.4,31.0,15.2,98,91,78,30.33,29.86,15,0,15,0.00